Theta_e
360 366 367 367 366 364 363 361 361 361 362 362 363 363 363 362 362 362 362 363 363 364 361 357 355 356 358 357 359 360 360 361 361 359 357 360 356 354 353 351 348 342 346
363 366 367 366 366 365 363 361 360 361 362 362 363 363 362 362 362 362 362 363 364 362 360 355 354 355 356 356 359 360 361 361 361 361 357 360 355 352 350 349 346 342 344
362 365 365 366 366 365 363 362 360 360 361 361 362 362 362 361 362 362 362 364 363 361 358 356 354 354 355 356 358 359 358 360 361 361 357 354 350 352 348 346 344 343 343
362 363 363 366 365 365 363 361 361 361 361 361 361 362 362 361 362 363 363 363 363 359 356 356 355 354 354 354 356 356 357 360 360 359 353 355 350 349 346 345 344 343 341
359 363 363 365 364 364 362 361 361 361 361 360 361 361 361 361 362 362 363 363 362 359 358 357 356 356 354 353 353 353 356 358 357 352 348 346 343 345 344 343 342 342 341
358 362 365 364 364 363 361 361 361 361 361 360 361 362 361 361 362 362 363 363 363 360 359 357 357 357 355 354 354 352 355 356 351 347 346 347 342 347 344 343 342 341 341
357 360 363 364 364 364 362 361 362 361 361 361 361 362 361 361 361 362 362 363 363 361 359 357 356 355 354 354 351 351 353 355 343 345 345 344 342 347 344 343 341 340 340
357 359 361 365 364 363 362 362 361 361 360 361 361 361 361 361 361 362 362 362 362 361 359 357 356 354 352 351 350 350 353 351 344 344 343 342 346 346 343 342 341 340 339
358 357 359 362 363 363 361 361 361 361 360 360 359 360 361 361 361 361 361 361 360 359 358 357 354 353 351 349 349 351 350 351 340 343 343 341 348 345 342 341 340 339 338
356 356 357 359 360 359 359 361 361 361 360 360 360 360 360 360 361 361 358 359 359 358 357 355 353 351 349 348 348 350 351 348 336 341 341 341 348 344 342 341 340 339 338
355 355 355 357 358 357 357 359 360 361 360 360 360 360 357 355 357 359 358 359 359 358 356 354 352 350 348 348 349 350 348 337 339 341 340 350 347 345 342 340 339 338 337
352 352 354 355 355 354 356 356 355 357 357 356 356 356 354 354 354 356 357 359 359 357 355 353 352 350 349 337 332 338 338 335 340 340 342 350 347 345 342 340 339 338 337
350 353 354 353 353 353 354 354 353 355 355 355 355 354 351 351 352 352 348 354 350 354 345 348 345 342 337 334 330 328 333 331 341 340 344 350 348 344 342 340 339 337 336
332 351 351 351 350 351 353 353 352 353 353 350 352 352 348 344 346 344 348 348 346 345 340 338 337 336 334 333 330 328 331 340 339 340 345 349 347 344 342 340 339 337 336
338 349 348 350 348 348 351 351 352 352 351 350 350 351 347 341 344 345 347 347 344 341 338 334 333 332 332 331 331 331 332 340 339 341 341 348 347 345 342 340 338 337 336
311 342 350 351 349 347 351 350 351 352 351 350 349 350 347 342 343 345 346 345 343 341 339 334 333 332 332 332 331 330 341 339 339 339 340 343 346 345 343 340 337 336 334
307 320 345 350 351 347 349 349 349 351 351 350 350 350 348 343 341 344 345 344 344 342 338 334 335 334 333 333 329 336 341 339 338 338 339 340 341 346 344 343 337 335 333
307 312 323 348 349 348 347 348 348 348 349 350 350 351 350 344 344 340 345 344 345 341 340 337 333 332 331 328 325 337 342 340 340 337 338 336 335 337 342 343 339 334 332
308 310 313 326 344 348 348 348 346 344 344 345 347 349 350 349 346 342 342 345 344 341 339 338 330 329 326 325 330 340 343 344 340 341 337 332 331 333 334 342 339 338 337
308 309 314 318 340 343 345 346 346 345 347 347 345 345 349 349 347 344 343 341 341 341 337 331 329 328 325 327 345 342 343 342 344 340 336 334 330 330 330 332 331 334 333
309 309 314 314 320 342 338 338 338 342 343 346 348 345 344 347 345 345 343 340 340 337 335 330 327 328 328 334 338 339 337 332 334 333 335 334 331 328 327 329 330 326 325
309 309 315 317 318 337 343 341 339 341 343 345 347 348 345 345 344 345 342 340 338 334 333 330 331 330 329 337 334 332 327 330 326 326 326 326 326 327 328 328 326 321 316
308 309 314 320 319 324 342 340 337 337 338 337 343 343 346 345 344 344 343 342 338 336 334 331 332 331 330 336 334 332 325 320 321 324 323 323 322 320 321 323 322 317 311
307 310 313 320 321 324 333 339 337 336 335 337 340 343 344 345 344 343 342 341 339 336 333 336 335 332 331 332 334 334 330 326 319 316 321 320 321 318 317 316 314 311 309
315 308 312 319 323 325 329 335 338 334 337 337 337 340 344 342 344 344 343 342 338 336 335 340 338 336 334 332 330 330 328 328 324 318 314 317 317 317 314 313 310 308 308
315 316 316 320 324 325 329 334 336 335 337 338 335 337 340 343 342 343 345 343 341 338 338 340 340 338 335 333 332 331 326 325 321 318 313 314 313 309 308 308 308 309 308
Wind_Speed
6 9 13 15 16 15 16 16 16 16 16 16 16 18 19 18 18 19 19 18 15 14 14 14 13 12 11 12 11 13 14 13 13 14 13 14 14 14 14 14 14 12 15
12 11 15 16 17 17 16 16 14 16 15 15 15 16 19 19 18 18 17 16 14 14 14 14 12 11 11 11 12 12 12 12 10 12 11 13 12 13 14 13 15 13 15
15 12 12 16 17 17 17 16 15 14 15 15 14 13 16 17 18 16 16 15 14 13 13 12 11 10 9 8 11 11 10 10 8 7 8 4 6 11 13 12 15 15 15
15 12 11 16 17 16 17 17 15 14 15 16 16 14 14 15 15 14 13 13 12 12 12 11 10 8 7 5 8 8 9 8 4 5 4 2 7 11 11 12 15 15 14
12 11 12 15 16 16 18 18 16 15 14 15 16 15 14 13 13 13 12 11 11 12 11 10 9 7 6 4 4 6 9 6 5 3 6 5 4 9 11 12 13 14 14
8 8 15 16 17 16 16 17 17 16 15 15 16 16 15 14 12 11 11 11 11 11 9 8 7 5 4 2 1 6 8 5 5 5 8 8 6 10 10 12 14 13 13
9 6 9 15 17 18 17 16 16 16 16 16 17 16 15 14 13 11 11 10 10 9 9 7 6 4 3 0 3 5 7 6 5 5 6 6 6 8 11 12 14 13 13
14 9 8 11 13 15 18 16 15 17 16 17 17 17 16 15 14 13 11 10 10 9 8 7 6 5 4 3 3 2 6 5 6 5 6 5 9 10 10 14 13 13 13
8 10 9 9 10 13 15 17 15 15 16 16 16 16 16 15 14 13 11 10 9 8 7 7 6 6 5 5 5 1 4 2 5 5 8 4 9 8 9 13 12 12 12
7 7 8 8 8 7 8 16 16 15 16 16 15 15 15 15 14 13 11 11 10 9 8 7 7 6 6 6 7 2 2 1 5 5 5 5 11 9 9 11 11 11 12
7 9 8 9 10 10 7 10 14 16 15 15 14 15 11 7 9 11 10 11 11 10 9 8 7 6 7 8 7 1 1 1 2 4 4 15 15 13 12 11 11 10 11
8 8 10 10 9 9 9 9 8 9 8 8 8 10 7 8 7 8 9 12 11 10 9 8 8 7 6 4 2 1 2 3 4 5 6 17 16 13 13 11 10 11 10
6 6 10 10 10 11 9 7 6 5 6 6 8 9 7 6 5 4 3 5 4 9 4 5 4 4 5 4 4 2 4 3 4 4 8 14 14 14 13 12 11 10 9
8 11 7 8 8 10 7 7 8 6 6 7 9 11 6 5 6 4 4 5 5 3 5 5 3 4 5 6 6 3 5 4 4 4 10 14 12 14 13 12 11 10 8
6 8 10 10 11 9 8 7 8 8 8 8 7 10 6 6 8 6 6 6 5 4 5 5 5 4 5 5 5 4 4 6 6 5 4 15 13 12 13 12 10 9 8
8 9 9 11 13 10 11 10 10 9 10 9 8 9 11 7 7 8 7 7 6 6 5 5 5 5 5 4 6 1 6 6 7 7 5 7 14 13 12 11 10 9 7
8 9 9 13 12 14 13 12 8 9 10 10 9 11 12 9 7 9 8 7 8 7 6 4 4 3 3 4 3 3 6 7 7 7 6 6 7 12 11 10 9 8 6
8 9 10 8 11 12 11 11 9 7 8 9 10 9 14 13 11 9 8 8 8 5 6 5 4 4 4 4 2 4 5 5 7 6 4 5 4 5 9 10 8 8 6
11 10 10 10 9 12 11 9 10 8 6 6 7 9 14 14 14 9 9 8 8 6 6 6 3 4 4 3 3 4 5 5 6 5 5 5 5 4 3 7 8 8 11
10 10 10 10 12 10 8 7 5 6 5 3 4 8 13 12 13 11 9 10 8 7 6 4 5 3 4 4 3 4 3 2 3 4 5 5 5 5 4 5 5 8 11
10 10 10 10 11 8 4 4 3 7 6 5 3 8 8 12 13 14 9 10 9 9 10 8 5 7 3 3 4 4 4 4 5 3 3 4 5 5 6 6 5 4 5
14 13 10 12 12 10 8 5 4 6 7 9 11 5 7 9 13 15 12 9 9 6 7 8 6 3 3 5 4 3 4 1 3 3 3 4 5 4 6 7 7 7 5
11 11 12 12 13 14 13 4 3 4 4 3 5 10 7 13 14 14 13 12 9 9 9 7 6 8 5 3 4 5 4 3 3 2 4 4 5 4 4 6 7 7 5
11 9 13 13 12 12 14 11 9 8 7 5 7 9 10 12 14 9 9 13 11 8 7 8 6 5 6 6 2 1 3 6 4 2 3 4 4 6 6 5 7 6 4
15 7 8 13 13 13 14 13 11 7 6 5 4 9 11 10 12 11 11 9 11 9 8 10 8 6 4 5 4 3 3 3 3 4 4 3 5 5 5 6 4 3 3
15 15 6 6 11 11 14 13 13 12 9 8 6 6 6 7 9 12 8 9 11 11 11 10 8 9 5 5 4 4 5 4 3 4 4 3 8 4 4 4 3 3 1
Wind_Direction
173 150 152 140 129 128 125 122 118 115 115 115 116 117 116 116 118 120 122 123 126 126 125 125 124 120 117 117 111 102 98 95 93 91 87 87 83 78 75 75 71 65 59
153 155 156 144 135 135 131 125 124 122 121 122 124 126 125 127 128 127 127 126 126 128 128 128 127 126 123 120 110 97 94 95 96 99 94 92 86 90 85 83 76 70 62
148 149 154 147 140 141 137 132 130 128 128 126 124 126 128 131 132 132 131 129 131 130 129 127 127 126 121 114 101 94 86 85 87 112 111 117 101 90 88 87 80 74 67
145 147 154 151 144 147 142 135 133 135 137 133 130 128 128 130 129 127 124 126 127 127 126 125 125 120 112 105 93 92 78 69 81 137 136 128 112 100 92 85 83 81 75
148 147 152 151 147 151 148 140 139 141 143 138 134 132 131 126 124 122 122 122 124 130 134 136 134 129 126 124 107 87 68 43 351 323 155 115 103 111 105 97 87 83 80
133 140 149 153 153 152 150 147 145 149 150 148 142 140 136 131 129 129 132 136 138 141 141 139 134 131 129 133 60 63 63 30 7 91 116 117 95 122 115 106 96 89 82
123 127 149 160 159 153 155 156 154 156 156 157 152 150 146 141 140 138 139 142 144 146 151 147 142 152 158 181 325 56 56 42 51 117 105 106 109 132 126 114 99 92 84
142 145 152 165 162 159 155 163 166 162 164 164 160 159 154 151 150 150 151 151 153 157 157 161 165 171 182 223 273 30 70 42 87 112 112 118 147 148 134 107 97 93 88
133 143 149 155 165 168 165 163 171 169 168 168 166 163 160 158 157 157 155 155 154 156 167 170 178 185 202 232 256 281 85 99 116 137 140 111 145 140 129 109 106 101 93
145 146 153 152 155 164 177 170 172 177 172 170 170 168 164 163 161 161 159 159 166 171 180 185 194 195 210 239 257 320 77 234 160 153 131 143 145 142 131 113 112 105 95
159 160 167 169 168 163 172 185 175 178 178 174 172 170 162 166 164 167 169 169 172 179 187 195 205 210 225 245 262 298 123 222 156 145 140 153 157 158 145 132 124 112 102
183 183 175 168 175 171 174 176 180 176 177 179 175 170 168 173 170 166 172 174 178 187 195 206 209 218 238 256 270 296 186 191 151 149 161 163 163 158 148 143 133 122 111
230 185 184 173 175 176 181 162 180 184 176 182 182 178 169 164 175 166 166 180 176 191 202 210 215 223 229 252 262 160 198 193 148 159 163 163 161 160 155 153 145 132 122
203 205 168 170 179 187 170 173 170 178 182 191 191 189 176 165 175 168 179 185 181 189 202 206 211 228 235 250 261 184 195 148 145 144 165 163 171 167 166 164 152 142 127
214 201 187 169 173 184 177 179 171 180 186 191 188 189 187 182 180 176 181 182 190 192 200 208 214 224 229 243 259 256 203 150 146 142 154 171 176 176 171 167 158 144 136
208 213 198 184 180 170 178 192 183 181 186 189 190 193 189 193 184 184 182 191 198 201 204 203 198 214 228 216 247 204 158 145 143 150 156 173 180 179 181 171 161 151 143
227 211 202 191 185 182 179 185 194 190 184 189 195 192 196 187 185 187 186 196 207 202 202 199 218 207 246 244 247 207 146 144 153 156 166 177 184 186 186 181 162 148 132
231 187 209 215 187 183 180 181 183 198 192 201 191 190 196 196 186 188 191 200 204 187 196 197 184 206 229 214 183 174 145 151 155 171 164 176 177 182 191 176 150 139 126
209 211 194 203 202 189 187 180 178 187 184 204 207 195 197 196 199 190 197 204 199 188 198 196 186 172 193 192 211 144 144 154 167 160 181 195 176 185 149 158 142 133 121
238 218 197 189 193 190 184 190 181 178 175 178 211 219 202 200 196 195 199 201 195 194 204 174 173 186 183 158 124 121 105 145 146 153 186 186 187 169 144 115 107 113 105
231 215 214 174 198 176 146 156 180 203 211 209 237 227 220 211 197 197 199 198 185 188 199 175 155 174 175 150 109 85 54 50 87 122 177 159 164 145 133 124 119 101 107
226 211 211 195 184 187 189 180 166 169 206 208 210 236 202 216 206 204 193 190 183 179 174 180 159 136 155 176 150 139 150 29 34 36 79 100 98 124 127 125 109 92 82
228 208 201 203 187 188 190 163 91 78 78 166 230 221 220 207 213 213 197 188 181 183 188 181 163 153 163 183 200 144 131 180 129 6 46 72 90 80 79 89 89 97 89
257 242 200 200 193 189 187 187 184 189 190 191 194 214 210 204 216 228 204 189 185 189 178 176 175 170 141 166 139 95 93 138 154 124 49 60 77 85 72 68 87 83 85
2 287 236 202 200 190 184 186 186 183 192 201 186 195 211 195 204 205 208 209 191 180 183 177 176 170 167 145 145 143 79 75 100 130 148 127 74 47 64 89 96 116 93
358 15 336 263 206 187 183 184 183 187 194 208 209 195 204 205 199 201 213 206 212 180 185 185 178 171 172 143 139 140 143 151 167 136 111 105 113 49 69 82 120 126 88